Monroe, MI

4:41 PM EDT on April 26, 2017 (GMT -0400)
Custer

Weather History for KTTF - March, 2013

Change the Weather History Date:

Saturday, March 16, 2013

  Actual Average Record
Temperature  
Mean Temperature 32 °F -  
Max Temperature 35 °F 45 °F 77 °F (1990)
Min Temperature 30 °F 25 °F 14 °F (1992)
Degree Days  
Heating Degree Days 32    
Moisture  
Dew Point 29 °F    
Average Humidity 91    
Maximum Humidity 100    
Minimum Humidity 75    
Precipitation  
Precipitation 0.00 in - - ()
Sea Level Pressure  
Sea Level Pressure 29.84 in    
Wind  
Wind Speed 7 mph (NNE)    
Max Wind Speed 13 mph    
Max Gust Speed 21 mph    
Visibility 7 miles    
Events Rain , Snow    
Averages and records for this station are not official NWS values.
T = Trace of Precipitation, MM = Missing Value Source: NWS Daily Summary

Daily Weather History Graph

Daily Weather History Graph

Search for Another Location

Airport or City:

Trip Planner

Search our weather history database for the weather conditions in past years. The results will help you decide how hot, cold, wet, or windy it might be!

Date:

Astronomy

Mar. 16, 2013 Rise Set
Actual Time 7:43 AM EDT 7:41 PM EDT
Civil Twilight 7:15 AM EDT 8:09 PM EDT
Nautical Twilight 6:43 AM EDT 8:42 PM EDT
Astronomical Twilight 6:10 AM EDT 9:15 PM EDT
Moon 10:07 AM EDT (3/16) No Moon Set
Length of Visible Light 12h 53m
Length of Day
11h 58m
Waxing Crescent, 23% of the Moon is Illuminated
Mar 16
Waxing Crescent
Mar 19
First Quarter
Mar 27
Full
Apr 3
Last Quarter
Apr 10
New

Hourly Weather History & Observations

Time (EDT) Temp. Windchill Dew Point Humidity Pressure Visibility Wind Dir Wind Speed Gust Speed Precip Events Conditions
12:16 AM 35.6 °F 30.7 °F 35.6 °F 100% 29.82 in 2.0 mi East 5.8 mph - N/A Snow Light Snow
12:36 AM 35.6 °F 30.7 °F 35.6 °F 100% 29.81 in 2.0 mi East 5.8 mph - N/A Rain Light Rain
12:56 AM 35.6 °F 30.7 °F 35.6 °F 100% 29.81 in 2.0 mi East 5.8 mph - N/A Snow Light Snow
1:11 AM 35.6 °F 32.8 °F 33.8 °F 93% 29.81 in 1.5 mi East 3.5 mph - N/A Snow Light Snow
1:31 AM 33.8 °F 30.8 °F 33.8 °F 100% 29.80 in 1.5 mi East 3.5 mph - N/A Rain Light Rain
1:51 AM 33.8 °F 30.8 °F 33.8 °F 100% 29.79 in 1.2 mi East 3.5 mph - N/A Snow Light Snow
2:12 AM 33.8 °F 30.8 °F 33.8 °F 100% 29.79 in 1.2 mi ENE 3.5 mph - N/A Snow Light Snow
2:32 AM 33.8 °F 29.6 °F 33.8 °F 100% 29.79 in 1.5 mi East 4.6 mph - N/A Snow Light Snow
2:52 AM 33.8 °F 25.8 °F 33.8 °F 100% 29.79 in 2.5 mi ENE 10.4 mph - N/A Snow Light Snow
3:12 AM 33.8 °F 24.8 °F 33.8 °F 100% 29.77 in 4.0 mi ENE 12.7 mph - N/A Snow Light Snow
3:32 AM 33.8 °F 25.3 °F 32.0 °F 93% 29.76 in 7.0 mi NE 11.5 mph - N/A Snow Light Snow
3:52 AM 32.0 °F 24.2 °F 30.2 °F 93% 29.76 in 10.0 mi NE 9.2 mph - N/A   Overcast
4:12 AM 32.0 °F 23.0 °F 30.2 °F 93% 29.76 in 10.0 mi NE 11.5 mph 20.7 mph N/A   Overcast
4:32 AM 32.0 °F 24.2 °F 30.2 °F 93% 29.77 in 5.0 mi ENE 9.2 mph - N/A Snow Light Snow
4:52 AM 32.0 °F 24.8 °F 30.2 °F 93% 29.76 in 3.0 mi NE 8.1 mph - N/A Snow Light Snow
5:13 AM 30.2 °F 21.9 °F 30.2 °F 100% 29.76 in 2.5 mi NE 9.2 mph - N/A Snow Light Snow
5:33 AM 30.2 °F 21.9 °F 30.2 °F 100% 29.75 in 3.0 mi ENE 9.2 mph - N/A Snow Light Snow
5:53 AM 30.2 °F 21.3 °F 30.2 °F 100% 29.74 in 1.5 mi ENE 10.4 mph - N/A Snow Light Snow
6:13 AM 30.2 °F 22.6 °F 30.2 °F 100% 29.74 in 3.0 mi ENE 8.1 mph - N/A Snow Light Snow
6:33 AM 30.2 °F 20.2 °F 30.2 °F 100% 29.72 in 7.0 mi ENE 12.7 mph - N/A Snow Light Snow
6:53 AM 30.2 °F 20.2 °F 30.2 °F 100% 29.72 in 1.5 mi ENE 12.7 mph 17.3 mph N/A Snow Light Snow
7:13 AM 30.2 °F 20.8 °F 30.2 °F 100% 29.73 in 1.0 mi ENE 11.5 mph 17.3 mph N/A Snow Light Snow
7:33 AM 30.2 °F 21.3 °F 30.2 °F 100% 29.74 in 2.5 mi NE 10.4 mph 16.1 mph N/A Snow Light Snow
7:53 AM 30.2 °F 23.4 °F 30.2 °F 100% 29.74 in 2.5 mi NE 6.9 mph 16.1 mph N/A Snow Light Snow
8:13 AM 30.2 °F 24.3 °F 30.2 °F 100% 29.75 in 2.0 mi NE 5.8 mph - N/A Snow Light Snow
8:34 AM 30.2 °F 24.3 °F 28.4 °F 93% 29.75 in 2.0 mi NE 5.8 mph - N/A Snow Light Snow
8:54 AM 30.2 °F 22.6 °F 28.4 °F 93% 29.74 in 5.0 mi ENE 8.1 mph - N/A Snow Light Snow
9:14 AM 30.2 °F 21.9 °F 28.4 °F 93% 29.74 in 10.0 mi ENE 9.2 mph - N/A   Overcast
9:34 AM 30.2 °F 21.9 °F 28.4 °F 93% 29.73 in 10.0 mi ENE 9.2 mph 17.3 mph N/A   Overcast
9:54 AM 30.2 °F 21.9 °F 28.4 °F 93% 29.74 in 10.0 mi ENE 9.2 mph - N/A   Overcast
10:14 AM 30.2 °F 21.3 °F 28.4 °F 93% 29.73 in 10.0 mi NE 10.4 mph 16.1 mph N/A   Overcast
10:34 AM 30.2 °F 22.6 °F 28.4 °F 93% 29.74 in 10.0 mi NE 8.1 mph - N/A   Overcast
10:54 AM 30.2 °F 22.6 °F 28.4 °F 93% 29.74 in 10.0 mi NE 8.1 mph - N/A   Overcast
11:14 AM 30.2 °F 21.9 °F 28.4 °F 93% 29.75 in 5.0 mi NNE 9.2 mph - N/A   Overcast
11:34 AM 30.2 °F 21.9 °F 28.4 °F 93% 29.75 in 10.0 mi NNE 9.2 mph - N/A   Overcast
11:55 AM 30.2 °F 21.3 °F 28.4 °F 93% 29.76 in 10.0 mi NNE 10.4 mph - N/A   Overcast
12:15 PM 30.2 °F 24.3 °F 28.4 °F 93% 29.77 in 4.0 mi NNE 5.8 mph - N/A   Overcast
12:35 PM 30.2 °F 23.4 °F 28.4 °F 93% 29.79 in 4.0 mi NNE 6.9 mph - N/A   Overcast
12:55 PM 30.2 °F 22.6 °F 28.4 °F 93% 29.80 in 5.0 mi NNE 8.1 mph - N/A   Overcast
1:15 PM 30.2 °F 21.9 °F 28.4 °F 93% 29.81 in 10.0 mi North 9.2 mph - N/A   Overcast
1:35 PM 30.2 °F 21.3 °F 28.4 °F 93% 29.82 in 10.0 mi North 10.4 mph - N/A   Overcast
1:55 PM 30.2 °F 20.2 °F 28.4 °F 93% 29.83 in 7.0 mi North 12.7 mph 16.1 mph N/A   Overcast
2:15 PM 30.2 °F 20.2 °F 28.4 °F 93% 29.84 in 5.0 mi North 12.7 mph - N/A   Overcast
2:35 PM 30.2 °F 21.3 °F 28.4 °F 93% 29.85 in 4.0 mi NNE 10.4 mph - N/A   Overcast
2:56 PM 30.2 °F 22.6 °F 28.4 °F 93% 29.85 in 7.0 mi North 8.1 mph - N/A   Overcast
3:16 PM 32.0 °F 24.8 °F 28.4 °F 87% 29.85 in 10.0 mi North 8.1 mph - N/A   Overcast
3:36 PM 32.0 °F 24.8 °F 28.4 °F 87% 29.86 in 10.0 mi North 8.1 mph - N/A   Overcast
3:56 PM 32.0 °F 27.5 °F 28.4 °F 87% 29.87 in 10.0 mi NNE 4.6 mph - N/A   Overcast
4:16 PM 32.0 °F 26.4 °F 28.4 °F 87% 29.88 in 10.0 mi North 5.8 mph - N/A   Overcast
4:36 PM 32.0 °F 28.7 °F 28.4 °F 87% 29.89 in 10.0 mi North 3.5 mph - N/A   Overcast
4:56 PM 33.8 °F 29.6 °F 28.4 °F 81% 29.90 in 10.0 mi North 4.6 mph - N/A   Overcast
5:11 PM 33.8 °F 30.8 °F 28.4 °F 81% 29.91 in 10.0 mi NW 3.5 mph - N/A   Overcast
5:31 PM 33.8 °F - 28.4 °F 81% 29.91 in 10.0 mi Calm Calm - N/A   Overcast
5:51 PM 33.8 °F 30.8 °F 28.4 °F 81% 29.92 in 10.0 mi NW 3.5 mph - N/A   Overcast
6:11 PM 33.8 °F 29.6 °F 28.4 °F 81% 29.93 in 10.0 mi WNW 4.6 mph - N/A   Overcast
6:32 PM 33.8 °F 30.8 °F 28.4 °F 81% 29.93 in 10.0 mi NW 3.5 mph - N/A   Overcast
6:52 PM 33.8 °F 28.6 °F 28.4 °F 81% 29.94 in 10.0 mi NW 5.8 mph - N/A   Overcast
7:12 PM 33.8 °F 28.6 °F 30.2 °F 87% 29.95 in 10.0 mi West 5.8 mph - N/A   Overcast
7:32 PM 32.0 °F 26.4 °F 30.2 °F 93% 29.96 in 2.0 mi WNW 5.8 mph - N/A Snow Light Snow
7:52 PM 32.0 °F 26.4 °F 30.2 °F 93% 29.97 in 7.0 mi WNW 5.8 mph - N/A   Overcast
8:12 PM 32.0 °F 27.5 °F 28.4 °F 87% 29.97 in 10.0 mi West 4.6 mph - N/A   Overcast
8:32 PM 33.8 °F 29.6 °F 28.4 °F 81% 29.97 in 10.0 mi West 4.6 mph - N/A   Overcast
8:52 PM 32.0 °F 27.5 °F 28.4 °F 87% 29.98 in 10.0 mi WNW 4.6 mph - N/A   Overcast
9:14 PM 32.0 °F 26.4 °F 26.6 °F 80% 29.99 in 10.0 mi NW 5.8 mph - N/A   Overcast
9:34 PM 32.0 °F 24.2 °F 26.6 °F 80% 29.99 in 10.0 mi NW 9.2 mph - N/A   Overcast
9:54 PM 32.0 °F 25.6 °F 26.6 °F 80% 30.00 in 10.0 mi NW 6.9 mph - N/A   Overcast
10:14 PM 32.0 °F 28.7 °F 26.6 °F 80% 30.00 in 10.0 mi WNW 3.5 mph - N/A   Overcast
10:34 PM 32.0 °F 27.5 °F 26.6 °F 80% 30.01 in 10.0 mi NW 4.6 mph - N/A   Overcast
10:54 PM 32.0 °F 26.4 °F 24.8 °F 75% 30.01 in 10.0 mi NW 5.8 mph - N/A   Overcast
11:14 PM 32.0 °F 25.6 °F 24.8 °F 75% 30.02 in 10.0 mi NW 6.9 mph - N/A   Overcast
11:34 PM 32.0 °F 26.4 °F 24.8 °F 75% 30.02 in 10.0 mi NW 5.8 mph - N/A   Overcast
11:54 PM 32.0 °F 27.5 °F 24.8 °F 75% 30.03 in 10.0 mi NW 4.6 mph - N/A   Overcast